Dublin, Ireland

8:23 PM GMT on December 02, 2016 (GMT +0000)
Dublin

Weather History for 03969 - April, 2013

Change the Weather History Date:

Wednesday, April 24, 2013

  Actual Average Record
Temperature  
Mean Temperature 50 °F -  
Max Temperature 57 °F - - ()
Min Temperature 44 °F - - ()
Degree Days  
Heating Degree Days 14    
Moisture  
Dew Point 48 °F    
Average Humidity 85    
Maximum Humidity 100    
Minimum Humidity 64    
Precipitation  
Precipitation 0.08 in - - ()
Sea Level Pressure  
Sea Level Pressure 30.13 in    
Wind  
Wind Speed 12 mph ()    
Max Wind Speed 22 mph    
Max Gust Speed 33 mph    
Visibility 6.2 miles    
Events Rain    
T = Trace of Precipitation, MM = Missing Value Source: Averaged Metar Reports

Daily Weather History Graph

Daily Weather History Graph

Search for Another Location

Airport or City:

Trip Planner

Search our weather history database for the weather conditions in past years. The results will help you decide how hot, cold, wet, or windy it might be!

Date:

Astronomy

Apr. 24, 2013 Rise Set
Actual Time 6:05 AM IST 8:42 PM IST
Civil Twilight 5:26 AM IST 9:21 PM IST
Nautical Twilight 4:36 AM IST 10:12 PM IST
Astronomical Twilight 3:34 AM IST 11:14 PM IST
Moon 7:23 PM IST (4/24) 5:13 AM IST (4/24)
Length of Visible Light 15h 55m
Length of Day
14h 37m
Waxing Gibbous, 97% of the Moon is Illuminated
Apr 24
Waxing Gibbous
Apr 25
Full
May 2
Last Quarter
May 10
New
May 18
First Quarter

Hourly Weather History & Observations

Time (IST) Temp. Windchill Dew Point Humidity Pressure Visibility Wind Dir Wind Speed Gust Speed Precip Events Conditions
12:00 AM 55.4 °F - 48.2 °F 77% 30.06 in 6.2 mi South 6.9 mph - N/A   Mostly Cloudy
12:30 AM 55.4 °F - 48.2 °F 77% 30.06 in 6.2 mi South 8.1 mph - N/A   Scattered Clouds
1:00 AM 57 °F - 48 °F 64% 30.06 in 19 mi South 11.2 mph - -   Scattered Clouds
1:00 AM 57.2 °F - 48.2 °F 72% 30.06 in 6.2 mi South 10.4 mph - N/A   Scattered Clouds
1:30 AM 57.2 °F - 48.2 °F 72% 30.04 in 6.2 mi SSW 15.0 mph - N/A   Mostly Cloudy
2:00 AM 57.2 °F - 48.2 °F 72% 30.04 in 6.2 mi SSW 15.0 mph - N/A   Scattered Clouds
2:30 AM 57.2 °F - 50.0 °F 77% 30.04 in 6.2 mi SW 17.3 mph - N/A   Mostly Cloudy
3:00 AM 55.4 °F - 50.0 °F 82% 30.04 in 6.2 mi SW 18.4 mph 29.9 mph N/A   Mostly Cloudy
3:30 AM 55.4 °F - 50.0 °F 82% 30.04 in 6.2 mi SW 19.6 mph - N/A   Mostly Cloudy
4:00 AM 55.4 °F - 50.0 °F 82% 30.04 in 6.2 mi SW 20.7 mph - N/A   Mostly Cloudy
4:30 AM 55.4 °F - 50.0 °F 82% 30.04 in 6.2 mi SW 21.9 mph 33.4 mph N/A   Mostly Cloudy
5:00 AM 53.6 °F - 50.0 °F 88% 30.04 in 6.2 mi SW 17.3 mph - N/A   Mostly Cloudy
5:30 AM 53.6 °F - 50.0 °F 88% 30.01 in 6.2 mi SW 20.7 mph - N/A   Mostly Cloudy
6:00 AM 53.6 °F - 50.0 °F 88% 30.04 in 6.2 mi SW 18.4 mph - N/A   Light Drizzle
6:30 AM 53.6 °F - 50.0 °F 88% 30.04 in 6.2 mi SW 17.3 mph - N/A   Mostly Cloudy
7:00 AM 54 °F - 50 °F 82% 30.05 in 12 mi SW 20.1 mph - - Rain Light Drizzle
7:00 AM 53.6 °F - 50.0 °F 88% 30.04 in 6.2 mi SW 19.6 mph - N/A   Mostly Cloudy
7:30 AM 53.6 °F - 50.0 °F 88% 30.04 in 6.2 mi SW 18.4 mph - N/A   Mostly Cloudy
8:00 AM 53.6 °F - 51.8 °F 94% 30.06 in 5.0 mi SW 16.1 mph - N/A   Light Drizzle
8:30 AM 53.6 °F - 51.8 °F 94% 30.06 in 6.2 mi SW 15.0 mph - N/A   Mostly Cloudy
9:00 AM 55.4 °F - 50.0 °F 82% 30.06 in 6.2 mi WSW 17.3 mph - N/A   Mostly Cloudy
9:30 AM 55.4 °F - 50.0 °F 82% 30.09 in 6.2 mi WSW 18.4 mph - N/A   Mostly Cloudy
10:00 AM 55.4 °F - 50.0 °F 82% 30.09 in 6.2 mi WSW 20.7 mph - N/A   Mostly Cloudy
10:30 AM 57.2 °F - 48.2 °F 72% 30.09 in 6.2 mi West 20.7 mph - N/A   Mostly Cloudy
11:00 AM 55.4 °F - 50.0 °F 82% 30.12 in 6.2 mi West 17.3 mph - N/A   Mostly Cloudy
11:30 AM 55.4 °F - 50.0 °F 82% 30.12 in 6.2 mi West 16.1 mph - N/A   Mostly Cloudy
12:00 PM 53.6 °F - 50.0 °F 88% 30.15 in 1.9 mi West 17.3 mph - N/A   Light Drizzle
12:30 PM 53.6 °F - 50.0 °F 88% 30.15 in 1.9 mi NW 12.7 mph - N/A   Light Drizzle
1:00 PM 53 °F - 48 °F 79% 30.19 in 25 mi WNW 13.4 mph - - Rain Light Drizzle
1:00 PM 53.6 °F - 48.2 °F 82% 30.18 in 6.2 mi WNW 12.7 mph - N/A   Mostly Cloudy
1:30 PM 53.6 °F - 46.4 °F 77% 30.18 in 6.2 mi WNW 10.4 mph - N/A   Mostly Cloudy
2:00 PM 55.4 °F - 46.4 °F 72% 30.18 in 6.2 mi WNW 10.4 mph - N/A   Mostly Cloudy
2:30 PM 53.6 °F - 46.4 °F 77% 30.21 in 6.2 mi NW 8.1 mph - N/A   Mostly Cloudy
3:00 PM 53.6 °F - 46.4 °F 77% 30.21 in 6.2 mi North 9.2 mph - N/A Rain Light Rain
3:30 PM 51.8 °F - 46.4 °F 82% 30.21 in 6.2 mi NNW 8.1 mph - N/A Rain Light Rain
4:00 PM 51.8 °F - 46.4 °F 82% 30.21 in 6.2 mi NNE 6.9 mph - N/A Rain Light Rain
4:30 PM 51.8 °F - 48.2 °F 88% 30.21 in 6.2 mi NE 5.8 mph - N/A Rain Light Rain
5:00 PM 51.8 °F - 48.2 °F 88% 30.21 in 6.2 mi East 9.2 mph - N/A Rain Light Rain
5:30 PM 48.2 °F - 46.4 °F 93% 30.24 in 6.2 mi ESE 8.1 mph - N/A Rain Light Rain
6:00 PM 48.2 °F - 46.4 °F 93% 30.24 in 6.2 mi SE 9.2 mph - N/A Rain Light Rain
6:30 PM 46.4 °F 42.9 °F 46.4 °F 100% 30.24 in 6.2 mi SE 6.9 mph - N/A Rain Light Rain
7:00 PM 47 °F - 46 °F 92% 30.26 in 4 mi ESE 8.9 mph - - Rain Light Rain
7:00 PM 46.4 °F 42.4 °F 46.4 °F 100% 30.24 in 3.7 mi ESE 8.1 mph - N/A Rain Light Rain
8:00 PM 46.4 °F 42.4 °F 44.6 °F 93% 30.24 in 2.5 mi ESE 8.1 mph - N/A Rain Light Rain
8:30 PM 44.6 °F 40.2 °F 44.6 °F 100% 30.24 in 4.3 mi SE 8.1 mph - N/A Rain Light Rain
9:00 PM 44.6 °F 40.2 °F 42.8 °F 93% 30.24 in 6.2 mi ESE 8.1 mph - N/A Rain Light Rain
9:30 PM 44.6 °F 41.4 °F 42.8 °F 93% 30.24 in 6.2 mi ESE 5.8 mph - N/A Rain Light Rain
10:00 PM 44.6 °F 41.4 °F 42.8 °F 93% 30.24 in 6.2 mi East 5.8 mph - N/A Rain Light Rain
10:30 PM 44.6 °F 42.2 °F 42.8 °F 93% 30.24 in 6.2 mi East 4.6 mph - N/A Rain Light Rain
11:00 PM 44.6 °F 41.4 °F 42.8 °F 93% 30.24 in 6.2 mi East 5.8 mph - N/A Rain Light Rain
11:30 PM 44.6 °F 41.4 °F 42.8 °F 93% 30.21 in 6.2 mi East 5.8 mph - N/A Rain Light Rain